Flag for Germany Weather past 2 weeks in Geesthacht, Schleswig-Holstein, Germany

Now
52 °F

Passing clouds.


Feels Like: 51 °F
Forecast: 49 / 59 °F
Wind: 5 mph from West

Location: Hamburg-Fuhlsbuettel

Current Time: Sep 23, 2014 at 10:27:16 AM

Latest Report: Sep 23, 2014 at 9:50 AM


Visibility: N/A

Pressure: 30.12 "Hg

Humidity: 67%

Dew point: 41 °F

Location of GeesthachtLocation

Historic Weather in Geesthacht — Graph

°F

Geesthacht temperature yesterday

Maximum temperature yesterday: 57 °F (at 12:20 AM)
Minimum temperature yesterday: 50 °F (at 10:50 PM)
Average temperature yesterday: 55 °F

Past Weeks' High & Low Weather Summary

 TemperatureHumidityPressure
High75 °F (Sep 15, 2:20 PM)100% (Sep 9, 3:50 AM)30.24 "Hg (Sep 9, 3:50 AM)
Low39 °F (Sep 23, 5:50 AM)49% (Sep 8, 1:50 PM)29.83 "Hg (Sep 22, 4:50 AM)
Average61 °F81%30.04 "Hg
* Reported Sep 8 9:20 AM — Sep 23 9:20 AM, Geesthacht, Weather by CustomWeather, © 2014

Note: Actual official high and low records may vary slightly from our data, if they occured in-between our weather recording intervals... More about our weather records

Advertising

Geesthacht weather history for previous 24 hours

 ConditionsComfort  
Time TempWeatherWind HumidityBarometerVisibility
9:20 AM
Sep 23
50 °FPassing clouds.3 mph71%30.12 "HgN/A
8:50 AM46 °FPassing clouds.No wind82%30.09 "HgN/A
8:20 AM43 °FPassing clouds.1 mph87%30.09 "HgN/A
7:50 AM41 °FFog.3 mph100%30.09 "HgN/A
7:20 AM39 °FFog.3 mph100%30.09 "HgN/A
6:50 AM39 °FChilly.5 mph100%30.09 "HgN/A
6:20 AM39 °FFog.5 mph100%30.09 "HgN/A
5:50 AM39 °FPassing clouds.3 mph100%30.07 "HgN/A
5:20 AM41 °FFog.3 mph93%30.07 "HgN/A
4:50 AM43 °FPassing clouds.3 mph93%30.07 "HgN/A
4:20 AM43 °FPassing clouds.5 mph93%30.07 "HgN/A
3:50 AM45 °FPassing clouds.6 mph87%30.09 "HgN/A
3:20 AM46 °FPassing clouds.6 mph82%30.07 "HgN/A
2:50 AM46 °FPassing clouds.6 mph82%30.07 "HgN/A
2:20 AM48 °FPassing clouds.6 mph82%30.07 "HgN/A
1:50 AM48 °FPassing clouds.8 mph82%30.07 "HgN/A
1:20 AM48 °FPassing clouds.8 mph82%30.07 "HgN/A
12:50 AM50 °FPassing clouds.10 mph76%30.07 "HgN/A
12:20 AM50 °FPassing clouds.13 mph76%30.07 "HgN/A
11:50 PM
Sep 22
50 °FPassing clouds.12 mph76%30.07 "HgN/A
11:20 PM50 °FPassing clouds.12 mph76%30.07 "HgN/A
10:50 PM50 °FPassing clouds.10 mph82%30.07 "HgN/A
10:20 PM52 °FPassing clouds.12 mph77%30.04 "HgN/A
9:50 PM52 °FPassing clouds.10 mph77%30.04 "HgN/A
9:20 PM52 °FClear.13 mph77%30.04 "Hg10 mi
8:50 PM54 °FClear.12 mph72%30.04 "Hg10 mi
8:20 PM54 °FClear.13 mph72%30.01 "Hg10 mi
7:50 PM55 °FPassing clouds.15 mph67%30.01 "HgN/A
7:20 PM57 °FPartly sunny.17 mph63%29.98 "HgN/A
6:50 PM57 °FBroken clouds.18 mph63%29.98 "HgN/A
6:20 PM57 °FPartly sunny.20 mph63%29.98 "HgN/A
5:50 PM57 °FPartly sunny.17 mph63%29.98 "HgN/A
5:20 PM57 °FBroken clouds.18 mph59%29.95 "HgN/A
4:50 PM57 °FPartly sunny.17 mph59%29.95 "HgN/A
4:20 PM57 °FPartly sunny.21 mph59%29.95 "HgN/A
3:50 PM57 °FPartly sunny.22 mph59%29.95 "HgN/A
3:20 PM57 °FPartly sunny.22 mph59%29.92 "HgN/A
2:50 PM57 °FPartly sunny.22 mph55%29.92 "HgN/A
2:20 PM57 °FBroken clouds.22 mph55%29.92 "HgN/A
1:50 PM57 °FBroken clouds.20 mph55%29.92 "HgN/A
1:20 PM55 °FPartly sunny.20 mph55%29.92 "HgN/A
12:50 PM57 °FScattered clouds.23 mph55%29.92 "HgN/A
12:20 PM55 °FPassing clouds.21 mph55%29.92 "HgN/A
11:50 AM55 °FPassing clouds.16 mph55%29.89 "HgN/A
11:20 AM54 °FScattered clouds.17 mph58%29.89 "HgN/A
10:50 AM54 °FScattered clouds.18 mph63%29.92 "HgN/A
10:20 AM54 °FPassing clouds.21 mph63%29.89 "HgN/A
Weather by CustomWeather, © 2014

See weather overviewHow to use our weather pages